Weather History for Madison, MN

Change the Weather History Date:

Wednesday, May 22, 2013

  Actual Average (KAQP) Record (KAQP)
Temperature  
Mean Temperature 50 °F -  
Max Temperature 53 °F 67 °F 84 °F (2012)
Min Temperature 46 °F 45 °F 35 °F (2006)
Degree Days  
Heating Degree Days 16    
Moisture  
Dew Point 46 °F    
Average Humidity 87    
Maximum Humidity 100    
Minimum Humidity 72    
Precipitation  
Precipitation 0.18 in - - ()
Sea Level Pressure  
Sea Level Pressure 29.86 in    
Wind  
Wind Speed 12 mph (NNE)    
Max Wind Speed 28 mph    
Max Gust Speed 40 mph    
Visibility 10 miles    
Events Rain    
Averages and records for this station are not official NWS values.
T = Trace of Precipitation, MM = Missing Value Source: NWS Daily Summary

Daily Weather History Graph

Daily Weather History Graph

Search for Another Location

Airport:

Trip Planner

Search our weather history database for the weather conditions in past years. The results will help you decide how hot, cold, wet, or windy it might be!

Date:

Astronomy

May. 22, 2013 Rise Set
Actual Time 5:48 AM CDT 8:55 PM CDT
Civil Twilight 5:13 AM CDT 9:30 PM CDT
Nautical Twilight 4:28 AM CDT 10:15 PM CDT
Astronomical Twilight 3:33 AM CDT 11:11 PM CDT
Moon 6:12 PM CDT (5/22) 4:00 AM CDT (5/22)
Length of Visible Light 16h 17m
Length of Day
15h 06m
Waxing Gibbous, 91% of the Moon is Illuminated
May 22
Waxing Gibbous
May 24
Full
May 31
Last Quarter
Jun 8
New
Jun 16
First Quarter

Hourly Weather History & Observations

Time (CDT) Temp. Windchill Dew Point Humidity Pressure Visibility Wind Dir Wind Speed Gust Speed Precip Events Conditions
12:13 AM 48.2 °F - 46.4 °F 93% 29.76 in 10.0 mi NNE 9.2 mph - N/A Rain Light Rain
12:34 AM 48.2 °F - 46.4 °F 93% 29.76 in 10.0 mi NE 9.2 mph - N/A Rain Light Rain
12:53 AM 48.2 °F - 46.4 °F 93% 29.76 in 10.0 mi NE 9.2 mph - N/A Rain Light Rain
1:13 AM 48.2 °F - 46.4 °F 93% 29.76 in 10.0 mi NNE 5.8 mph - 0.01 in Rain Light Rain
1:34 AM 48.2 °F - 46.4 °F 93% 29.76 in 7.0 mi NE 9.2 mph - 0.01 in Rain Light Rain
1:53 AM 48.2 °F - 46.4 °F 93% 29.76 in 10.0 mi NE 10.4 mph - 0.01 in   Light Drizzle
2:13 AM 48.2 °F - 46.4 °F 93% 29.76 in 10.0 mi NNE 6.9 mph - N/A   Drizzle
2:34 AM 48.2 °F - 46.4 °F 93% 29.76 in 10.0 mi NNE 4.6 mph - N/A   Drizzle
2:53 AM 48.2 °F - 46.4 °F 93% 29.76 in 10.0 mi NNE 8.1 mph - N/A Rain Light Rain
3:13 AM 48.2 °F - 46.4 °F 93% 29.76 in 10.0 mi NNE 8.1 mph - N/A Rain Light Rain
3:34 AM 48.2 °F - 46.4 °F 93% 29.76 in 10.0 mi NNE 8.1 mph - N/A Rain Rain
3:53 AM 48.2 °F - 46.4 °F 93% 29.76 in 10.0 mi NNE 10.4 mph - 0.01 in Rain Light Rain
4:13 AM 48.2 °F - 46.4 °F 93% 29.76 in 10.0 mi NNE 11.5 mph - N/A Rain Light Rain
4:34 AM 48.2 °F - 46.4 °F 93% 29.77 in 4.0 mi NNE 12.7 mph 18.4 mph 0.01 in Rain Light Rain
4:54 AM 48.2 °F - 46.4 °F 93% 29.77 in 10.0 mi NNE 11.5 mph - 0.02 in Rain Light Rain
5:13 AM 46.4 °F 40.7 °F 46.4 °F 100% 29.77 in 10.0 mi NNE 12.7 mph - 0.01 in Rain Light Rain
5:34 AM 46.4 °F 40.7 °F 46.4 °F 100% 29.77 in 10.0 mi North 12.7 mph - 0.02 in Rain Light Rain
5:54 AM 46.4 °F 41.1 °F 44.6 °F 93% 29.78 in 10.0 mi North 11.5 mph - 0.04 in Rain Light Rain
6:13 AM 46.4 °F 41.5 °F 44.6 °F 93% 29.78 in 10.0 mi North 10.4 mph - 0.01 in Rain Light Rain
6:34 AM 46.4 °F 41.1 °F 44.6 °F 93% 29.78 in 10.0 mi North 11.5 mph - 0.01 in Rain Light Rain
6:54 AM 46.4 °F 40.1 °F 44.6 °F 93% 29.78 in 10.0 mi North 15.0 mph - 0.02 in Rain Light Rain
7:13 AM 46.4 °F 40.1 °F 44.6 °F 93% 29.78 in 10.0 mi North 15.0 mph - 0.01 in Rain Light Rain
7:34 AM 46.4 °F 40.7 °F 44.6 °F 93% 29.78 in 10.0 mi North 12.7 mph 18.4 mph 0.02 in Rain Light Rain
7:54 AM 48.2 °F - 44.6 °F 87% 29.78 in 10.0 mi North 13.8 mph - 0.02 in Rain Rain
8:13 AM 48.2 °F - 44.6 °F 87% 29.79 in 10.0 mi North 16.1 mph - N/A   Light Drizzle
8:34 AM 48.2 °F - 44.6 °F 87% 29.79 in 10.0 mi North 12.7 mph - N/A Rain Rain
8:54 AM 48.2 °F - 44.6 °F 87% 29.80 in 10.0 mi North 13.8 mph 18.4 mph 0.01 in Rain Light Rain
9:13 AM 48.2 °F - 44.6 °F 87% 29.80 in 10.0 mi North 13.8 mph 19.6 mph N/A   Overcast
9:34 AM 48.2 °F - 44.6 °F 87% 29.80 in 10.0 mi North 13.8 mph - N/A Rain Light Rain
9:54 AM 48.2 °F - 44.6 °F 87% 29.81 in 10.0 mi North 15.0 mph - N/A Rain Light Rain
10:13 AM 48.2 °F - 44.6 °F 87% 29.81 in 10.0 mi NNE 13.8 mph - 0.01 in Rain Light Rain
10:34 AM 48.2 °F - 44.6 °F 87% 29.81 in 10.0 mi NNE 12.7 mph 19.6 mph 0.02 in Rain Light Rain
10:53 AM 48.2 °F - 44.6 °F 87% 29.82 in 10.0 mi NNE 17.3 mph - 0.02 in Rain Light Rain
11:13 AM 50.0 °F - 44.6 °F 82% 29.82 in 10.0 mi NNE 16.1 mph 21.9 mph N/A Rain Light Rain
11:34 AM 50.0 °F - 46.4 °F 87% 29.82 in 7.0 mi NNE 15.0 mph - N/A Rain Light Rain
11:53 AM 50.0 °F - 46.4 °F 87% 29.83 in 7.0 mi North 15.0 mph - N/A Rain Light Rain
12:13 PM 48.2 °F - 46.4 °F 93% 29.83 in 10.0 mi NNE 18.4 mph - 0.01 in Rain Light Rain
12:34 PM 50.0 °F - 46.4 °F 87% 29.84 in 10.0 mi North 16.1 mph - 0.01 in Rain Light Rain
12:53 PM 50.0 °F - 46.4 °F 87% 29.85 in 10.0 mi NNE 16.1 mph - 0.02 in Rain Light Rain
1:13 PM 50.0 °F - 46.4 °F 87% 29.85 in 7.0 mi NNE 16.1 mph 19.6 mph N/A Rain Light Rain
1:34 PM 50.0 °F - 46.4 °F 87% 29.86 in 10.0 mi NE 11.5 mph - N/A Rain Light Rain
1:53 PM 50.0 °F - 46.4 °F 87% 29.86 in 10.0 mi NNE 12.7 mph 18.4 mph 0.01 in Rain Light Rain
2:13 PM 51.8 °F - 46.4 °F 82% 29.87 in 10.0 mi NNE 15.0 mph - N/A   Overcast
2:34 PM 51.8 °F - 46.4 °F 82% 29.88 in 10.0 mi NNE 17.3 mph 20.7 mph N/A Rain Light Rain
2:53 PM 51.8 °F - 46.4 °F 82% 29.88 in 10.0 mi NE 15.0 mph - N/A   Light Drizzle
3:13 PM 51.8 °F - 48.2 °F 88% 29.88 in 10.0 mi NNE 11.5 mph - N/A   Light Drizzle
3:34 PM 51.8 °F - 48.2 °F 88% 29.89 in 10.0 mi NNE 17.3 mph 23.0 mph N/A   Light Drizzle
3:53 PM 51.8 °F - 46.4 °F 82% 29.89 in 10.0 mi NNE 16.1 mph - N/A   Light Drizzle
4:14 PM 51.8 °F - 48.2 °F 88% 29.90 in 10.0 mi NNE 18.4 mph 23.0 mph N/A   Light Drizzle
4:33 PM 51.8 °F - 48.2 °F 88% 29.90 in 10.0 mi NE 18.4 mph 25.3 mph N/A   Drizzle
4:54 PM 51.8 °F - 48.2 °F 88% 29.91 in 7.0 mi NNE 19.6 mph - N/A   Drizzle
5:14 PM 53.6 °F - 48.2 °F 82% 29.92 in 10.0 mi NE 19.6 mph 25.3 mph N/A   Light Drizzle
5:33 PM 53.6 °F - 48.2 °F 82% 29.92 in 10.0 mi NE 18.4 mph 25.3 mph N/A   Light Drizzle
5:54 PM 53.6 °F - 48.2 °F 82% 29.93 in 10.0 mi NE 17.3 mph 25.3 mph N/A   Light Drizzle
6:13 PM 53.6 °F - 48.2 °F 82% 29.94 in 7.0 mi NE 26.5 mph 31.1 mph N/A   Light Drizzle
6:33 PM 53.6 °F - 46.4 °F 77% 29.94 in 10.0 mi ENE 27.6 mph 40.3 mph N/A   Light Drizzle
6:54 PM 53.6 °F - 46.4 °F 77% 29.95 in 10.0 mi NE 18.4 mph 29.9 mph N/A   Light Drizzle
7:13 PM 53.6 °F - 46.4 °F 77% 29.96 in 10.0 mi NE 17.3 mph 23.0 mph N/A   Overcast
7:34 PM 53.6 °F - 44.6 °F 72% 29.96 in 10.0 mi ENE 21.9 mph 33.4 mph N/A   Light Drizzle
7:53 PM 53.6 °F - 44.6 °F 72% 29.97 in 10.0 mi ENE 18.4 mph 25.3 mph N/A   Overcast
8:14 PM 53.6 °F - 46.4 °F 77% 29.98 in 10.0 mi NE 15.0 mph 18.4 mph N/A   Overcast
8:34 PM 53.6 °F - 44.6 °F 72% 29.99 in 10.0 mi NE 15.0 mph - N/A   Overcast
8:53 PM 53.6 °F - 46.4 °F 77% 30.00 in 10.0 mi NE 9.2 mph - N/A   Overcast
9:14 PM 53.6 °F - 44.6 °F 72% 30.00 in 10.0 mi NE 9.2 mph - N/A   Overcast
9:34 PM 51.8 °F - 44.6 °F 76% 30.02 in 10.0 mi NE 8.1 mph - N/A   Overcast
9:54 PM 51.8 °F - 44.6 °F 76% 30.03 in 10.0 mi NE 9.2 mph - N/A   Mostly Cloudy
10:13 PM 48.2 °F - 42.8 °F 82% 30.04 in 10.0 mi NNE 5.8 mph - N/A   Scattered Clouds
10:34 PM 48.2 °F - 42.8 °F 82% 30.05 in 10.0 mi NNE 6.9 mph - N/A   Clear
10:54 PM 46.4 °F 42.9 °F 42.8 °F 87% 30.05 in 10.0 mi North 6.9 mph - N/A   Clear
11:13 PM 46.4 °F 42.4 °F 42.8 °F 87% 30.06 in 10.0 mi North 8.1 mph - N/A   Clear
11:34 PM 46.4 °F 41.9 °F 42.8 °F 87% 30.06 in 10.0 mi North 9.2 mph - N/A   Clear
11:53 PM 46.4 °F 42.9 °F 42.8 °F 87% 30.07 in 10.0 mi North 6.9 mph - N/A   Clear